Regional Weather Roundup
Issued by NWS

Home | Current Version | Previous Version | Text Only | Print | Product List | Glossary On
Versions: 1 2 3 4 5 6 7 8 9 10 11 12 13 14 15 16 17 18 19 20 21 22 23 24 25 26 27 28 29 30 31 32 33 34 35 36 37 38 39 40 41 42 43 44 45 46 47 48 49 50
000
ASUS43 KTOP 171008
RWRKS

WEATHER ROUNDUP FOR KANSAS
NATIONAL WEATHER SERVICE GOODLAND KS
500 AM CDT TUE OCT 17 2017

NOTE:  "FAIR" INDICATES FEW OR NO CLOUDS BELOW 12,000 FEET WITH NO
SIGNIFICANT WEATHER AND/OR OBSTRUCTIONS TO VISIBILITY.

KSZ001>006-013>018-027>032-041>047-171100-
NORTHWEST KANSAS

CITY           SKY/WX    TMP DP  RH WIND       PRES   REMARKS
GOODLAND       CLOUDY    40  29  64 W7        30.16S
HAYS           CLEAR     43  36  76 SW8       30.12F
HILL CITY      CLEAR     44  38  79 W8        30.10F
RUSSELL        CLOUDY    47  39  74 S15       30.10F
$$

KSZ061>065-074>080-084>089-171100-
SOUTHWEST KANSAS

CITY           SKY/WX    TMP DP  RH WIND       PRES   REMARKS
DODGE CITY     CLEAR     46  35  65 S12       30.14F
ELKHART          N/A     46  37  71 SW8         N/A
GARDEN CITY    CLOUDY    39  33  79 S3        30.13F
GREAT BEND     CLEAR     46  37  71 S8        30.14S
LIBERAL        CLOUDY    40  36  86 W3        30.14F
PRATT          CLEAR     46  37  69 S12       30.16S
$$

KSZ066>073-081>083-090>101-171100-
SOUTHEAST KANSAS

CITY           SKY/WX    TMP DP  RH WIND       PRES   REMARKS
CHANUTE        PTCLDY    46  41  82 S9        30.24S
COFFEYVILLE    PTCLDY    45  42  89 CALM      30.24F
HUTCHINSON     CLEAR     48  41  76 S8        30.17F
MEDICINE LODGE   N/A     48  39  71 SE6       30.18F
NEWTON         CLEAR     49  40  71 S10       30.19F
PARSONS        PTCLDY    43  40  89 CALM      30.25S
WICHITA INTL   CLEAR     47  42  83 S9        30.19F
WICHITA JABRA  CLEAR     47  41  80 S9        30.19F
WICHITA MCCONL CLEAR     48  39  72 S8        30.20S
WINFIELD       CLEAR     47  42  83 S7        30.23S
$$

KSZ007>012-019>026-033>040-048>060-102>105-171100-
NORTHEAST KANSAS

CITY           SKY/WX    TMP DP  RH WIND       PRES   REMARKS
CONCORDIA      CLEAR     52  40  63 S12       30.11R
EMPORIA        PTCLDY    46  39  76 S12       30.19F
LAWRENCE       PTCLDY    45  41  86 E6        30.20S
MANHATTAN      CLEAR     50  41  71 SW6       30.15F
MARYSVILLE     CLEAR     50  41  71 S8        30.13S
OLATHE IND     PTCLDY    45  40  82 S7        30.22S
OLATHE EXE     CLOUDY    48  40  73 S7        30.21F
SALINA         CLOUDY    53  42  66 S12       30.14F
TOPEKA BILLARD PTCLDY    51  41  68 S6        30.18F
TOPEKA FORBES  PTCLDY    51  41  68 S9        30.18S
$$




USA.gov is the U.S. government's official web portal to all federal, state and local government web resources and services.